Location: PSU-Greenbush Astrophysical Observatory
(37.5140°N, 94.9880°W)
Time: 19:55:28
(UTC-06:00)

deb Explorer IX - Pass Details

Date: 31 January 2020
Orbit: 549 x 1099 km, 38.8° (Epoch: 20 February)

Event Time Altitude Azimuth Distance (km) Brightness Sun altitude
Rises 21:25:47 0° 270° (W) 3,550 ? -44.3°
Reaches altitude 10° 21:28:16 10° 271° (W) 2,681 ? -44.8°
Enters shadow 21:30:01 20° 273° (W) 2,091 ? -45.1°
Maximum altitude 21:34:53 80° 359° (N) 1,056 - -46.0°
Drops below altitude 10° 21:42:09 10° 87° (E) 2,935 - -47.4°
Sets 21:44:58 0° 88° (E) 3,904 - -48.0°
